カタログに戻る

STARLINK-35118

運用中通信VLEO
NORAD 66858·PAYLOAD·🇺🇸 United States

打ち上げ Dec 2, 2025 から Cape Canaveral Space Force Station

Loading…

次のパス (今後24時間)

TLE

最新Source: CelesTrak SupGP

元期: Sep 14, 2026, 22:57 UTC

1 66858C 25281L   26257.95673611 -.00018272  00000+0 -66175-3 0  2577
2 66858  43.0034 354.6940 0001444 271.6441 328.5938 15.27590675    14

AllMySatでSTARLINK-35118をリアルタイム追跡

Download on the App Store